Regional Weather Roundup
Issued by NWS

Home | Current Version | Previous Version | Text Only | Print | Product List | Glossary Off
Versions: 1 2 3 4 5 6 7 8 9 10 11 12 13 14 15 16 17 18 19 20 21 22 23 24 25 26 27 28 29 30 31 32 33 34 35 36 37 38 39 40 41 42 43 44 45 46 47 48 49 50

000
ASUS43 KLMK 151610
RWRKY
KENTUCKY REGIONAL WEATHER ROUNDUP
NATIONAL WEATHER SERVICE LOUISVILLE KY
1100 AM EST SUN JAN 15 2017

NOTE "FAIR" INDICATES FEW OR NO CLOUDS BELOW 12,000 FEET
WITH NO SIGNIFICANT WEATHER AND/OR OBSTRUCTIONS TO VISIBILITY.

KYZ001>023-026-027-061>063-070>075-151700-
WESTERN AND SOUTH CENTRAL KENTUCKY

CITY           SKY/WX    TMP DP  RH WIND       PRES   REMARKS
PADUCAH        LGT RAIN  38  35  89 NE8       30.38F FOG     WCI  32
HENDERSON      CLOUDY    37  34  87 NE6       30.40S WCI  33
OWENSBORO      DRZL/FOG  38  38 100 NE5       30.41S VSB 1   WCI  34
HOPKINSVILLE   DRIZZLE   43  43 100 NE6       30.36R
BOWLING GREEN  CLOUDY    45  42  89 NE3       30.39R
GLASGOW        CLOUDY   N/A N/A N/A NE5       30.37S HAZE
$$

KYZ024-025-028>034-038-045-046-053-151700-
NORTH CENTRAL KENTUCKY

CITY           SKY/WX    TMP DP  RH WIND       PRES   REMARKS
LOUISVILLE/SDF CLOUDY    40  35  83 NE7       30.41R HAZE
LOUISVILLE/LOU CLOUDY    40  34  79 NE5       30.42R
FORT KNOX      DRZL/FOG  38  38  99 NE6       30.38R VSB 1   WCI  33
$$

KYZ035>037-039>044-047>052-055>060-089>105-151700-
NORTHEAST KENTUCKY

CITY           SKY/WX    TMP DP  RH WIND       PRES   REMARKS
LEXINGTON      CLOUDY    39  36  89 E8        30.39R WCI  33
COVINGTON      CLOUDY    34  33  96 E5        30.41S FOG     WCI  30
FRANKFORT      CLOUDY    39  35  86 N6        30.40R FOG     WCI  35
$$

KYZ054-064>069-076>088-106>120-151700-
SOUTHEAST KENTUCKY

CITY           SKY/WX    TMP DP  RH WIND       PRES   REMARKS
JACKSON        FOG       40  40 100 CALM      30.37F VSB<1/4
LONDON         CLOUDY    43  41  93 E5        30.36S
SOMERSET       CLOUDY    43  43 100 CALM      30.38S
MIDDLESBORO    CLOUDY    49  49  97 CALM      30.37S
MONTICELLO     CLOUDY    45  44  97 VRB7G17   30.38R
$$





USA.gov is the U.S. government's official web portal to all federal, state and local government web resources and services.